Location: Berlin
(38.3226°N, 75.2177°W)
Time: 23:56:32
(UTC+00:00)

Cosmos 1697 Rocket - Pass Details

Date: 26 October 2020
Orbit: 831 x 845 km, 71.0° (Epoch: 05 December)

Event Time Altitude Azimuth Distance (km) Brightness Sun altitude
Rises 09:51:05 0° 337° (NNW) 3,402 5.6 -18.3°
Reaches altitude 10° 09:53:32 10° 338° (NNW) 2,465 4.9 -17.8°
Maximum altitude 09:59:13 88° 67° (ENE) 849 2.7 -16.7°
Drops below altitude 10° 10:04:52 10° 158° (SSE) 2,456 5.4 -15.6°
Sets 10:07:18 0° 159° (SSE) 3,388 6.2 -15.1°
